Skip Page Navigation
NASA JPL Caltech
NASA Logo - Jet Propulsion Laboratory + View the NASA Portal
+ Center for Near-Earth Object Studies
JPL Home Earth Solar System Stars & Galaxies Technology
JPL Solar System Dynamics
BODIES ORBITS EPHEMERIDES TOOLS PHYSICAL DATA DISCOVERY FAQ SITE MAP
JPL Small-Body Database Browser
Search: [ help ]  
192138 (2006 DX195)
Classification: Main-belt Asteroid          SPK-ID: 2192138
Ephemeris | Orbit Diagram | Orbital Elements | Mission Design | Physical Parameters | Discovery Circumstances | Close-Approach Data ]

[ show orbit diagram ]
Orbital Elements at Epoch 2459200.5 (2020-Dec-17.0) TDB
Reference: JPL 25 (heliocentric ecliptic J2000)
 Element Value Uncertainty (1-sigma)   Units 
e .1487072796680715 4.7722e-08  
a 3.032703987796045 2.5671e-08 au
q 2.581718827732383 1.4323e-07 au
i 1.222086978092836 4.8648e-06 deg
node 175.9178375672403 0.00024282 deg
peri 35.10740374360164 0.00024355 deg
M 266.03910201752 2.1402e-05 deg
tp 2459703.986833856298
(2022-May-04.48683386)
0.00011817 TDB
period 1929.049892882721
5.28
2.4494e-05
6.706e-08
d
yr
n .1866203675333796 2.3696e-09 deg/d
Q 3.483689147859707 2.9489e-08 au
  Orbit Determination Parameters
   # obs. used (total)      382  
   data-arc span      9543 days (26.13 yr)  
   first obs. used      1995-01-31  
   last obs. used      2021-03-18  
   planetary ephem.      DE441  
   SB-pert. ephem.      SB441-N16  
   condition code      0  
   norm. resid. RMS      .62723  
   source      ORB  
   producer      Otto Matic  
   solution date      2021-May-04 10:19:41  

Additional Information
 Earth MOID = 1.57533 au 
 Jupiter MOID = 1.47893 au 
 T_jup = 3.225 
[ show covariance matrix ]

Ephemeris | Orbit Diagram | Orbital Elements | Mission Design | Physical Parameters | Discovery Circumstances | Close-Approach Data ]

Physical Parameter Table
Parameter Symbol Value Units Sigma Reference Notes
absolute magnitude H 15.90   n/a MPCxxxxx  

192138 (2006 DX195)          Discovered 2006-Feb-20 by Spacewatch at Kitt Peak
Reference: 20080917/Numbers.arcLast Updated: 2008-09-19

[ show close-approach data ]
Alternate Designations
 2006 DX195 = 2001 HD22 
Ephemeris | Orbit Diagram | Orbital Elements | Mission Design | Physical Parameters | Discovery Circumstances | Close-Approach Data ]
ABOUT SSD CREDITS/AWARDS PRIVACY/COPYRIGHT GLOSSARY LINKS
FirstGov 2021-May-07 14:20 UT
(server date/time)  
NASA Home Page
Site Manager:   Ryan S. Park
Webmaster  Alan B. Chamberlin